Home   Weather   Minas   Past weeks

Flag for Uruguay Past Weather in Minas, Uruguay — Yesterday and Last 2 Weeks

54 °F

Passing clouds.

Feels Like: 47 °F
Forecast: 50 / 53 °F
Wind: 31 mph from Southwest

Location: Capitan Corbeta

Current Time: Oct 27, 2016 at 2:06:47 AM

Latest Report: Oct 27, 2016 at 1:00 AM

Visibility: N/A

Pressure: 29.68 "Hg

Humidity: 77%

Dew Point: 46 °F

Location of MinasLocation

Past Weather in Minas — Graph


Minas Temperature Yesterday

Maximum temperature yesterday: 68 °F (at 12:00 PM)
Minimum temperature yesterday: 57 °F (at 9:00 PM)
Average temperature yesterday: 62 °F

High & Low Weather Summary for the Past Weeks

High79 °F (Oct 12, 3:00 PM)100% (Oct 16, 9:00 AM)30.18 "Hg (Oct 16, 9:00 AM)
Low48 °F (Oct 14, 6:00 AM)47% (Oct 17, 11:00 PM)29.56 "Hg (Oct 16, 4:00 PM)
Average61 °F86%29.95 "Hg
* Reported Oct 12 1:00 AM — Oct 27 1:00 AM, Minas, Weather by CustomWeather, © 2016

Note: Actual official high and low records may vary slightly from our data, if they occured in-between our weather recording intervals... More about our weather records


Minas Weather History for the Previous 24 Hours

Scroll right to see more
Time TempWeatherWind HumidityBarometerVisibility
1:00 AM
Thu, Oct 27
54 °FPassing clouds.31 mph77%29.68 "HgN/A
12:00 AM57 °FOvercast.30 mph77%29.71 "Hg5 mi
11:00 PM
Wed, Oct 26
57 °FOvercast.30 mph94%29.71 "Hg5 mi
10:00 PM57 °FOvercast.23 mph88%29.68 "Hg5 mi
9:00 PM57 °FLow clouds.23 mph88%29.68 "Hg5 mi
8:00 PM61 °FLight rain. Fog.26 mph94%29.65 "Hg3 mi
7:00 PM61 °FLow clouds.20 mph94%29.65 "Hg5 mi
6:00 PM63 °FLight rain. Low clouds.25 mph88%29.62 "Hg5 mi
5:00 PM63 °FOvercast.15 mph88%29.62 "Hg5 mi
4:00 PM64 °FMore clouds than sun.15 mph88%29.62 "Hg5 mi
1:00 PM68 °FDrizzle. Partly sunny.6 mph83%29.68 "HgN/A
12:00 PM68 °FPartly sunny.6 mph88%29.74 "HgN/A
11:00 AM64 °FMostly cloudy.7 mph94%29.77 "Hg5 mi
10:00 AM64 °FMostly cloudy.10 mph94%29.77 "HgN/A
9:00 AM64 °FDrizzle. Partly sunny.13 mph94%29.77 "Hg5 mi
8:00 AM63 °FLight rain. Mostly cloudy.12 mph100%29.80 "Hg5 mi
7:00 AM63 °FRain. Mostly cloudy.14 mph94%29.80 "Hg5 mi
6:00 AM63 °FLight rain. Mostly cloudy.12 mph94%29.80 "Hg5 mi
5:00 AM61 °FLow clouds.9 mph94%29.80 "HgN/A
4:00 AM61 °FLow clouds.12 mph94%29.83 "HgN/A
3:00 AM61 °FDrizzle. Low clouds.12 mph100%29.86 "HgN/A
2:00 AM63 °FDrizzle. Low clouds.14 mph88%29.89 "HgN/A
Weather by CustomWeather, © 2016

See weather overviewHow to use our weather pages